• In Kazakhstan
  • List of Countries
  • For 7 days
  • Water Temperature
  • Satellite Maps
  • Weather Map
  • News
  • Weather Widgets
  • user-avatar
    Login

    Hourly Weather Louangphabang

    Today, 21 November, Tuesday

    Time Temperature Precipitation Wind Pressure Humidity
    00:00 +19°C° 0.1 mm 0 mps 699 mmHg 97%
    01:00 +19°C° 0 mm 0 mps 699 mmHg 98%
    02:00 +19°C° 0 mm 0 mps 698 mmHg 98%
    03:00 +18°C° 0 mm 0 mps 698 mmHg 98%
    04:00 +18°C° 0 mm 0 mps 698 mmHg 98%
    05:00 +18°C° 0 mm 0 mps 698 mmHg 98%
    06:00 +18°C° 0 mm 0 mps 699 mmHg 98%
    07:00 +18°C° 0 mm 0 mps 699 mmHg 97%
    08:00 +21°C° 0 mm 0 mps 700 mmHg 88%
    09:00 +23°C° 0 mm 0 mps 700 mmHg 79%
    10:00 +25°C° 0 mm 0 mps 701 mmHg 69%
    11:00 +26°C° 0.1 mm 0 mps 700 mmHg 66%
    12:00 +27°C° 0.1 mm 0 mps 700 mmHg 62%
    13:00 +28°C° 0.1 mm 0 mps 699 mmHg 59%
    14:00 +27°C° 0.5 mm 0 mps 698 mmHg 65%
    15:00 +26°C° 0.5 mm 0 mps 698 mmHg 71%
    16:00 +28°C° 0.5 mm 1 mps 697 mmHg 77%
    17:00 +24°C° 0.3 mm 0 mps 697 mmHg 82%
    18:00 +22°C° 0.3 mm 0 mps 697 mmHg 87%
    19:00 +21°C° 0.3 mm 0 mps 697 mmHg 92%
    20:00 +20°C° 0 mm 0 mps 698 mmHg 93%
    21:00 +20°C° 0 mm 0 mps 698 mmHg 94%
    22:00 +20°C° 0 mm 0 mps 699 mmHg 96%
    23:00 +19°C° 0 mm 0 mps 699 mmHg 96%

    Tomorrow, 22 November, Wednesday

    Time Temperature Precipitation Wind Pressure Humidity
    00:00 +19°C° 0 mm 0 mps 699 mmHg 97%
    01:00 +19°C° 0 mm 0 mps 698 mmHg 98%
    02:00 +19°C° 0 mm 0 mps 698 mmHg 98%
    03:00 +18°C° 0 mm 0 mps 698 mmHg 98%
    04:00 +18°C° 0 mm 0 mps 698 mmHg 98%
    05:00 +18°C° 0 mm 0 mps 698 mmHg 98%
    06:00 +18°C° 0 mm 0 mps 698 mmHg 98%
    07:00 +18°C° 0 mm 0 mps 699 mmHg 98%
    08:00 +21°C° 0 mm 0 mps 699 mmHg 86%
    09:00 +24°C° 0 mm 0 mps 700 mmHg 75%
    10:00 +26°C° 0 mm 0 mps 701 mmHg 64%
    11:00 +26°C° 0.5 mm 0 mps 700 mmHg 66%
    12:00 +27°C° 0.5 mm 0 mps 699 mmHg 69%
    13:00 +27°C° 0.5 mm 0 mps 698 mmHg 71%
    14:00 +26°C° 0.8 mm 0 mps 697 mmHg 76%
    15:00 +25°C° 0.8 mm 0 mps 697 mmHg 81%
    16:00 +25°C° 0.8 mm 0 mps 696 mmHg 87%
    17:00 +23°C° 0.5 mm 0 mps 697 mmHg 89%
    18:00 +22°C° 0.5 mm 0 mps 697 mmHg 92%
    19:00 +20°C° 0.5 mm 0 mps 697 mmHg 95%
    20:00 +20°C° 0.4 mm 0 mps 698 mmHg 96%
    21:00 +20°C° 0.4 mm 0 mps 698 mmHg 96%
    22:00 +19°C° 0.4 mm 0 mps 699 mmHg 97%
    23:00 +19°C° 0.2 mm 0 mps 699 mmHg 97%

    Day after tomorrow, 23 November, Thursday

    Time Temperature Precipitation Wind Pressure Humidity
    00:00 +19°C° 0.2 mm 0 mps 699 mmHg 97%
    01:00 +19°C° 0.2 mm 0 mps 698 mmHg 98%
    02:00 +19°C° 0.1 mm 0 mps 698 mmHg 98%
    03:00 +19°C° 0.1 mm 0 mps 698 mmHg 98%
    04:00 +19°C° 0.1 mm 0 mps 697 mmHg 98%
    05:00 +19°C° 0.1 mm 0 mps 698 mmHg 98%
    06:00 +19°C° 0.1 mm 0 mps 698 mmHg 98%
    07:00 +19°C° 0.1 mm 0 mps 699 mmHg 98%
    08:00 +20°C° 0.2 mm 0 mps 699 mmHg 96%
    09:00 +21°C° 0.2 mm 0 mps 700 mmHg 93%
    10:00 +21°C° 0.2 mm 0 mps 701 mmHg 91%
    11:00 +22°C° 0.6 mm 0 mps 700 mmHg 91%
    12:00 +22°C° 0.6 mm 0 mps 699 mmHg 91%
    13:00 +23°C° 0.6 mm 0 mps 699 mmHg 91%
    14:00 +22°C° 0.9 mm 0 mps 698 mmHg 93%
    15:00 +22°C° 0.9 mm 0 mps 698 mmHg 95%
    16:00 +22°C° 0.9 mm 0 mps 698 mmHg 97%
    17:00 +21°C° 1.2 mm 0 mps 698 mmHg 97%
    18:00 +20°C° 1.2 mm 0 mps 698 mmHg 98%
    19:00 +19°C° 1.2 mm 0 mps 699 mmHg 98%
    20:00 +19°C° 1.8 mm 0 mps 699 mmHg 99%
    21:00 +19°C° 1.8 mm 0 mps 700 mmHg 99%
    22:00 +19°C° 1.8 mm 0 mps 700 mmHg 99%
    23:00 +19°C° 1.6 mm 0 mps 700 mmHg 99%

    24 November, Friday

    Time Temperature Precipitation Wind Pressure Humidity
    00:00 +18°C° 1.6 mm 0 mps 700 mmHg 99%
    01:00 +18°C° 1.6 mm 0 mps 700 mmHg 99%
    02:00 +18°C° 0.8 mm 0 mps 700 mmHg 99%
    03:00 +18°C° 0.8 mm 0 mps 699 mmHg 99%
    04:00 +18°C° 0.8 mm 0 mps 699 mmHg 99%
    05:00 +17°C° 0.6 mm 0 mps 699 mmHg 99%
    06:00 +17°C° 0.6 mm 0 mps 700 mmHg 99%
    07:00 +17°C° 0.6 mm 0 mps 700 mmHg 99%
    08:00 +18°C° 0.1 mm 0 mps 701 mmHg 96%
    09:00 +21°C° 0.1 mm 1 mps 701 mmHg 93%
    10:00 +22°C° 0.1 mm 1 mps 702 mmHg 90%
    11:00 +23°C° 0.1 mm 1 mps 701 mmHg 84%
    12:00 +24°C° 0.1 mm 1 mps 701 mmHg 79%
    13:00 +25°C° 0.1 mm 1 mps 700 mmHg 74%
    14:00 +22°C° 0.4 mm 0 mps 700 mmHg 79%
    15:00 +21°C° 0.4 mm 0 mps 699 mmHg 85%
    16:00 +21°C° 0.4 mm 0 mps 699 mmHg 90%
    17:00 +20°C° 0.3 mm 0 mps 699 mmHg 93%
    18:00 +19°C° 0.3 mm 0 mps 700 mmHg 96%
    19:00 +20°C° 0.3 mm 1 mps 700 mmHg 98%
    20:00 +20°C° 0.1 mm 1 mps 700 mmHg 98%
    21:00 +19°C° 0.1 mm 1 mps 701 mmHg 99%
    22:00 +17°C° 0.1 mm 0 mps 701 mmHg 99%
    23:00 +17°C° 0.2 mm 0 mps 701 mmHg 99%

    25 November, Saturday

    Time Temperature Precipitation Wind Pressure Humidity
    00:00 +17°C° 0.2 mm 0 mps 700 mmHg 99%
    01:00 +16°C° 0.2 mm 0 mps 700 mmHg 99%
    02:00 +16°C° 0.1 mm 0 mps 700 mmHg 99%
    03:00 +16°C° 0.1 mm 0 mps 700 mmHg 99%
    04:00 +16°C° 0.1 mm 0 mps 700 mmHg 99%
    05:00 +16°C° 0 mm 0 mps 700 mmHg 99%
    06:00 +18°C° 0 mm 1 mps 701 mmHg 99%
    07:00 +18°C° 0 mm 1 mps 701 mmHg 99%
    08:00 +19°C° 0 mm 1 mps 701 mmHg 95%
    09:00 +19°C° 0 mm 1 mps 702 mmHg 92%
    10:00 +20°C° 0 mm 1 mps 702 mmHg 88%
    11:00 +21°C° 0 mm 1 mps 702 mmHg 84%
    12:00 +23°C° 0 mm 1 mps 701 mmHg 79%
    13:00 +24°C° 0 mm 1 mps 700 mmHg 74%
    14:00 +24°C° 0.1 mm 1 mps 700 mmHg 74%
    15:00 +24°C° 0.1 mm 1 mps 700 mmHg 73%
    16:00 +24°C° 0.1 mm 1 mps 699 mmHg 73%
    17:00 +23°C° 0 mm 1 mps 700 mmHg 80%
    18:00 +21°C° 0 mm 1 mps 700 mmHg 86%
    19:00 +19°C° 0 mm 1 mps 700 mmHg 93%
    20:00 +19°C° 0 mm 1 mps 700 mmHg 94%
    21:00 +18°C° 0 mm 1 mps 701 mmHg 95%
    22:00 +18°C° 0 mm 1 mps 701 mmHg 95%
    23:00 +18°C° 0 mm 1 mps 701 mmHg 96%

    26 November, Sunday

    Time Temperature Precipitation Wind Pressure Humidity
    00:00 +16°C° 0 mm 1 mps 701 mmHg 96%
    01:00 +16°C° 0 mm 1 mps 701 mmHg 96%
    02:00 +16°C° 0 mm 1 mps 700 mmHg 96%
    03:00 +16°C° 0 mm 1 mps 700 mmHg 96%
    04:00 +16°C° 0 mm 1 mps 700 mmHg 96%
    05:00 +16°C° 0 mm 1 mps 701 mmHg 96%
    06:00 +16°C° 0 mm 1 mps 701 mmHg 95%
    07:00 +16°C° 0 mm 1 mps 701 mmHg 94%
    08:00 +20°C° 0 mm 1 mps 702 mmHg 83%
    09:00 +23°C° 0 mm 1 mps 702 mmHg 71%
    10:00 +26°C° 0 mm 1 mps 703 mmHg 60%
    11:00 +27°C° 0 mm 1 mps 702 mmHg 56%
    12:00 +28°C° 0 mm 1 mps 701 mmHg 52%
    13:00 +30°C° 0 mm 1 mps 700 mmHg 48%
    14:00 +27°C° 0.1 mm 0 mps 700 mmHg 54%
    15:00 +26°C° 0.1 mm 0 mps 699 mmHg 60%
    16:00 +26°C° 0.1 mm 0 mps 698 mmHg 66%
    17:00 +24°C° 0 mm 0 mps 699 mmHg 72%
    18:00 +22°C° 0 mm 0 mps 699 mmHg 78%
    19:00 +20°C° 0 mm 0 mps 699 mmHg 85%
    20:00 +19°C° 0 mm 0 mps 699 mmHg 86%
    21:00 +19°C° 0 mm 0 mps 699 mmHg 87%
    22:00 +19°C° 0 mm 0 mps 700 mmHg 89%
    23:00 +18°C° 0 mm 0 mps 699 mmHg 90%
    Show more